Temperature
21 21 21 20 19 17 20 20 21 22 22 22 22 22 21 21 21 21 21 21 21 20 20 20 20 20 19 19 19 19 19 19 19 19 19 19 19 19 18 18 18 18 18 18 18 18 18 17 17
21 21 20 20 18 19 20 21 21 21 22 22 22 21 21 20 20 21 21 21 21 20 20 20 20 19 19 19 19 19 19 19 19 19 19 19 19 19 18 18 18 18 18 18 18 17 18 17 17
21 21 20 17 18 19 21 21 21 22 22 22 21 21 21 20 20 21 21 21 20 20 20 20 20 19 19 19 19 19 19 19 19 19 19 19 18 18 18 18 18 18 18 18 17 17 17 17 17
21 21 20 17 20 20 20 21 21 22 22 22 21 20 20 20 21 21 21 20 20 20 20 20 19 19 19 19 19 19 19 19 18 18 18 18 18 18 18 18 18 18 18 17 17 17 17 17 17
21 21 18 18 19 20 20 21 22 21 22 21 21 20 20 20 21 21 21 20 20 20 20 19 19 19 19 19 19 18 18 18 18 18 18 18 18 18 18 18 17 17 17 17 17 17 17 17 17
21 18 17 18 20 21 21 22 22 22 21 21 20 20 20 20 21 21 20 20 20 20 19 19 19 19 19 18 18 18 18 18 18 18 17 17 17 17 17 17 17 17 17 17 17 17 17 17 17
20 17 18 19 20 21 22 23 22 21 21 21 21 19 19 20 20 20 20 20 20 19 19 19 19 19 18 18 18 18 18 18 17 17 17 17 17 17 17 17 17 17 17 17 17 17 17 17 17
21 17 19 19 20 21 22 23 23 22 22 22 21 20 19 20 20 20 20 19 19 19 19 19 19 18 18 18 18 18 18 17 17 17 17 17 17 17 17 17 16 16 16 17 17 17 16 16 16
21 17 18 19 20 21 22 22 22 22 22 21 21 21 21 20 20 19 19 19 19 19 18 18 18 18 18 18 18 18 17 17 17 17 17 17 16 16 16 16 16 16 16 16 16 16 16 16 16
20 17 19 20 21 21 22 22 22 21 21 20 20 21 21 20 20 19 19 19 19 19 18 18 18 18 18 18 18 18 17 17 17 17 17 16 16 16 16 16 16 16 16 16 16 16 16 16 16
19 19 20 21 22 22 21 22 22 21 20 21 21 20 20 20 19 19 19 19 19 19 18 18 18 18 18 18 18 18 17 17 17 16 16 16 16 16 16 16 16 16 16 16 16 16 16 16 16
19 19 21 22 22 22 22 22 21 21 22 22 22 21 20 20 19 19 19 19 19 19 18 18 18 18 18 18 18 17 17 17 16 16 16 16 16 16 16 16 16 16 16 16 16 16 16 16 16
20 20 22 22 23 22 22 21 21 21 22 22 21 20 20 20 19 19 19 19 19 19 18 18 18 18 18 17 17 17 17 16 16 16 16 16 16 16 16 16 16 16 15 15 15 15 15 15 15
20 21 21 22 22 22 21 21 21 20 21 21 20 20 20 20 19 19 19 19 19 19 18 18 18 18 17 17 17 17 17 16 16 16 16 16 16 15 15 15 15 15 15 15 15 15 15 15 15
21 20 20 21 21 21 21 20 20 21 21 20 20 19 19 19 19 19 19 19 19 19 18 18 17 17 17 17 17 16 16 16 16 16 15 15 15 15 15 15 15 15 15 15 15 15 15 15 15
20 20 20 21 21 21 21 20 20 21 20 19 19 19 19 19 19 19 19 19 18 18 18 17 17 17 17 16 16 16 16 16 16 15 15 15 15 15 15 15 15 15 15 15 15 15 15 15 15
19 19 20 21 21 21 20 20 20 20 19 19 18 18 18 18 18 18 18 18 18 18 17 17 17 17 16 16 16 16 16 16 15 15 15 15 15 15 15 15 15 14 15 15 14 14 14 14 14
19 20 20 20 20 20 20 19 19 19 19 18 18 18 18 18 18 18 18 18 18 17 17 17 17 16 16 16 16 16 16 15 15 15 15 15 15 15 14 14 14 14 14 14 14 14 14 14 14
20 20 20 20 20 20 19 19 19 18 18 18 18 18 18 18 18 18 18 18 17 17 17 17 16 16 16 16 15 15 15 15 15 15 15 15 14 14 14 14 14 14 14 14 14 14 14 14 14
20 20 20 20 20 20 19 19 18 18 18 18 18 18 18 18 18 18 18 17 17 17 17 16 16 16 15 15 15 15 15 15 15 15 15 14 14 14 14 14 14 14 14 14 14 14 14 14 14
20 20 20 20 20 19 19 19 18 18 18 18 18 18 18 18 18 18 18 17 17 17 17 16 16 16 15 15 15 15 15 15 15 14 14 14 14 14 14 14 14 13 13 14 14 14 13 13 13
20 20 20 20 19 18 19 18 18 17 17 17 17 17 17 17 18 18 17 17 17 16 16 16 16 15 15 15 15 15 14 14 15 14 14 14 14 14 14 13 13 13 13 13 13 13 13 13 13
21 21 20 19 18 17 18 17 17 17 17 16 16 17 17 17 17 17 17 17 17 16 16 16 15 15 15 15 15 14 14 14 14 14 14 14 14 13 13 13 13 13 13 13 13 13 13 13 13
21 19 18 16 16 17 18 17 17 16 17 17 16 17 17 17 17 17 17 17 16 16 16 15 15 15 15 14 14 14 14 14 14 14 14 14 13 13 13 13 13 13 13 13 13 13 13 13 13
20 18 18 18 17 17 17 17 17 17 17 17 16 17 17 17 17 17 17 16 16 16 16 15 15 15 14 14 14 14 14 14 14 14 14 13 13 13 13 13 13 13 13 13 13 13 13 13 13
19 19 18 18 17 17 17 17 17 17 17 17 17 17 17 17 17 17 17 16 16 16 16 15 15 15 14 14 14 14 14 14 14 13 13 13 13 13 13 13 13 13 13 13 13 13 12 12 12
19 18 18 16 17 17 16 17 17 17 17 16 16 16 16 17 17 17 17 16 16 16 16 15 15 15 14 14 14 14 14 14 13 13 13 13 13 13 13 13 13 13 12 12 13 12 12 12 12
19 17 15 16 17 17 18 17 17 17 17 16 15 15 16 17 17 17 17 16 16 16 16 15 15 15 14 14 14 14 14 14 13 13 13 13 13 13 13 13 13 12 12 12 12 12 12 12 12
19 18 16 15 16 16 17 17 17 17 16 15 15 16 16 17 17 17 17 16 16 16 16 15 15 14 14 14 14 14 14 13 13 13 13 13 13 13 13 13 12 12 12 12 12 12 12 12 12
19 18 16 17 16 15 16 16 17 16 16 16 16 16 17 17 17 17 17 16 16 16 16 15 15 14 14 14 14 14 14 13 13 13 13 13 13 13 13 12 12 12 12 12 12 12 12 12 12
Wind_Speed
4 4 2 2 5 5 1 3 2 2 1 1 2 3 4 2 2 2 1 7 8 8 9 12 12 12 12 12 12 13 13 14 14 14 13 13 13 13 12 12 12 11 11 11 11 10 10 11 10
4 3 2 4 4 2 3 3 2 2 2 2 3 3 3 2 2 2 2 5 8 9 9 11 12 12 12 12 12 13 12 13 13 13 13 13 13 12 12 11 11 10 10 10 10 9 10 10 10
4 2 4 4 3 4 3 3 2 1 1 2 3 2 2 1 2 2 3 8 8 8 9 10 13 11 11 12 12 12 12 12 12 12 12 12 12 11 11 10 10 10 9 9 9 9 10 10 10
3 3 5 4 1 4 4 4 2 1 0 2 3 3 2 2 1 4 8 10 10 7 8 9 12 11 11 11 11 11 11 11 11 11 11 11 10 10 10 9 9 9 9 8 8 8 8 9 9
3 4 4 2 3 4 4 4 4 3 2 2 3 3 2 3 5 9 10 10 10 7 6 9 10 10 10 10 10 10 10 10 10 10 9 9 9 9 8 8 8 8 8 8 8 7 7 7 8
4 4 4 1 4 4 3 3 3 3 2 3 3 3 1 2 6 7 8 8 8 7 6 7 10 10 9 9 8 8 8 8 8 8 8 8 8 8 8 7 7 7 7 7 6 7 7 7 7
5 4 3 3 3 4 2 2 3 3 3 3 4 4 2 2 4 7 7 8 7 6 5 4 5 7 8 9 8 8 7 7 7 7 7 7 7 7 7 6 6 6 6 6 6 6 6 6 7
5 4 1 2 3 4 2 1 1 3 2 2 5 6 4 5 7 8 7 7 7 6 5 4 4 5 5 6 8 7 6 6 6 5 5 5 5 5 5 5 6 6 5 5 5 6 5 5 6
4 4 2 5 5 4 1 1 1 1 3 2 1 2 4 12 11 9 7 5 5 5 3 3 3 4 4 5 6 6 6 5 4 4 4 4 3 2 3 3 5 5 5 4 4 4 5 4 4
4 3 6 5 5 3 2 2 2 2 2 2 2 4 10 13 11 10 8 7 5 5 4 3 3 3 3 4 5 4 4 3 3 3 4 3 3 2 2 3 3 3 3 3 3 4 3 3 3
5 6 5 5 4 3 2 2 2 5 3 5 7 10 12 12 10 9 8 7 6 5 5 4 3 3 3 3 3 3 3 3 2 2 3 3 2 2 2 2 1 1 1 2 2 3 3 4 3
4 5 5 4 2 2 3 2 2 4 5 4 8 13 13 12 10 9 9 7 6 5 5 4 4 3 3 3 2 2 2 2 2 1 2 3 2 1 1 1 1 2 2 2 2 2 2 3 3
4 4 4 5 4 3 3 3 3 2 2 7 10 11 12 12 9 7 6 6 6 5 5 5 5 4 3 3 2 2 1 1 2 2 2 2 2 2 1 1 2 2 2 2 2 1 2 1 1
4 3 4 3 3 1 3 1 3 4 5 9 10 10 10 11 10 7 6 6 6 6 5 4 5 4 3 3 2 2 1 1 1 1 1 2 2 2 2 2 1 2 2 2 2 1 1 0 1
0 1 4 2 1 2 4 1 4 5 7 9 9 9 9 8 9 9 9 7 6 5 4 4 5 4 3 3 2 2 2 2 1 1 2 2 3 3 2 2 1 2 3 3 3 2 1 0 0
2 1 2 4 1 2 5 5 5 6 9 8 8 8 8 6 7 8 7 5 5 4 3 3 4 4 3 3 2 2 2 2 2 2 2 3 3 3 3 2 2 2 3 3 2 1 1 0 0
2 1 3 4 1 2 3 5 4 6 9 9 8 8 8 6 6 5 5 5 5 5 4 3 2 4 3 2 1 1 1 1 2 2 2 2 3 3 3 3 2 3 3 2 2 2 2 1 0
5 3 4 5 3 2 3 5 4 5 7 8 7 7 7 6 6 6 6 5 4 4 4 3 2 2 2 2 1 1 1 0 1 1 2 3 2 3 4 3 3 3 2 2 2 2 1 1 1
4 4 5 6 2 2 4 5 5 4 5 6 6 7 7 6 4 4 6 5 4 3 3 4 3 2 3 2 2 1 1 1 1 1 2 3 3 3 3 2 2 2 2 2 2 2 2 1 1
4 4 5 5 1 3 2 4 4 4 6 7 9 9 8 6 4 4 5 5 5 5 4 4 4 3 3 3 3 2 1 1 1 1 1 2 2 3 3 3 3 2 2 2 2 2 2 1 1
5 7 6 4 2 2 2 4 4 2 3 5 6 7 7 8 7 6 5 5 5 5 5 4 3 3 3 2 1 1 1 1 1 1 1 1 2 2 3 3 3 3 3 3 3 3 3 2 0
6 7 7 5 2 2 2 3 6 3 3 5 6 6 7 7 6 6 6 5 4 5 4 4 3 3 3 3 3 4 2 2 3 2 2 1 2 2 3 3 3 3 3 3 3 3 3 3 2
6 2 4 3 4 1 0 2 6 1 4 6 6 7 8 7 7 7 7 7 5 4 3 3 3 3 3 3 4 4 2 2 1 1 1 1 1 2 2 3 3 3 2 3 3 3 3 2 3
5 6 6 5 4 1 3 4 6 4 6 5 5 6 7 7 6 6 5 4 3 3 3 2 3 3 3 3 3 4 4 3 2 2 2 2 1 2 2 2 2 3 2 3 3 3 3 3 3
5 5 3 3 2 5 2 3 8 6 6 7 8 8 7 6 6 6 6 5 4 4 3 3 3 2 2 3 3 4 4 4 5 4 4 3 2 2 3 3 2 2 3 3 3 3 3 3 3
6 8 7 5 5 4 1 5 7 5 3 4 5 6 6 6 6 6 7 6 6 5 4 4 4 3 3 3 3 3 3 3 3 4 4 4 4 4 4 3 3 3 3 3 3 3 3 3 3
6 4 6 6 2 1 4 5 7 2 1 2 4 5 6 6 7 6 6 6 6 5 5 4 4 3 3 3 2 2 2 2 3 3 3 3 3 3 3 4 4 3 3 3 3 3 3 3 3
5 8 6 5 4 3 4 4 5 6 5 4 5 6 6 5 5 5 5 5 5 5 4 3 4 4 3 2 3 3 2 2 3 3 3 3 3 2 3 3 3 3 3 3 3 3 3 3 3
4 4 5 5 5 5 3 7 6 8 8 8 8 7 7 6 5 5 5 5 4 3 3 3 3 3 2 3 3 2 2 2 2 3 3 3 2 2 2 3 3 3 3 3 3 4 3 3 3
4 6 7 5 3 4 4 7 5 5 6 7 7 6 5 5 5 4 4 4 3 4 4 4 4 4 4 3 2 2 2 2 2 2 3 2 3 3 3 2 2 3 3 3 4 4 4 4 4
Wind_Direction
158 130 110 84 57 50 312 270 264 320 335 350 103 107 120 119 148 181 44 130 130 140 147 150 150 147 142 134 129 125 125 126 127 129 131 132 132 135 138 140 140 142 144 144 146 146 147 147 147
129 131 79 63 81 60 287 265 268 240 187 122 71 65 80 72 72 99 107 133 132 137 139 147 148 146 143 137 131 128 128 129 130 132 133 135 136 138 140 144 144 145 147 148 149 150 149 151 153
147 127 88 76 107 178 238 245 223 246 138 129 101 67 92 92 108 140 151 135 121 124 134 149 148 146 142 139 136 133 133 132 133 135 136 137 140 141 142 144 148 150 150 151 152 154 154 156 160
121 60 57 73 214 225 224 243 206 132 47 83 122 103 73 19 139 141 129 128 121 122 134 147 147 147 145 144 142 140 138 138 138 139 141 143 145 145 148 149 150 151 152 154 156 154 155 157 161
67 81 62 18 261 253 238 236 182 163 174 116 122 128 92 11 98 119 125 129 128 126 131 145 145 146 147 146 143 143 143 142 142 143 145 149 150 150 153 155 155 156 157 159 161 160 162 164 164
62 71 85 262 267 272 258 200 148 134 143 132 131 128 106 85 112 127 126 126 126 128 125 137 145 145 146 143 143 147 149 149 147 148 151 152 153 155 160 164 163 164 164 165 166 168 168 165 168
110 106 157 214 266 284 248 159 155 154 166 171 148 130 140 132 128 124 117 114 112 113 109 112 135 144 144 143 142 143 147 153 157 158 158 158 160 164 167 171 177 180 180 178 177 174 175 177 179
129 110 147 229 228 254 261 123 151 145 184 129 136 151 185 169 129 110 102 103 107 106 108 107 104 111 125 137 144 141 138 138 145 150 151 156 163 171 178 184 191 197 196 191 186 180 176 178 183
104 86 210 220 209 243 221 99 59 105 115 102 122 160 154 135 127 115 106 98 109 116 112 111 109 107 114 132 139 138 140 142 142 141 143 143 135 151 174 188 191 199 201 200 190 181 179 178 181
109 160 223 219 201 217 239 192 180 124 118 121 91 92 119 132 137 138 141 146 151 150 144 122 122 112 112 123 115 110 124 129 127 126 122 113 115 142 159 167 180 195 200 197 175 155 154 147 141
162 196 230 247 227 218 220 211 168 147 184 197 173 153 143 142 145 149 154 157 161 156 149 142 138 122 121 113 113 102 97 99 103 112 125 125 123 126 119 115 142 145 121 84 100 107 113 126 138
186 239 230 253 241 222 211 192 171 191 209 174 158 151 147 149 156 162 164 163 158 151 161 158 149 136 130 115 119 119 112 113 113 133 150 149 134 112 115 114 100 101 109 96 88 100 114 126 147
210 258 259 255 267 230 186 190 171 225 153 113 125 138 150 155 160 158 152 152 153 163 175 172 161 155 147 127 134 131 140 155 153 152 146 147 153 159 144 133 121 123 122 123 104 102 111 117 141
220 232 276 283 275 237 148 198 148 222 140 128 137 149 162 164 160 153 154 161 171 180 183 176 168 166 154 149 147 148 171 168 135 150 150 154 161 165 156 151 140 139 140 137 128 131 135 145 161
303 319 318 287 208 207 119 3 209 185 141 145 155 161 167 171 160 165 174 175 180 183 181 181 178 164 162 161 164 159 174 157 159 177 170 166 174 168 161 165 173 172 148 127 111 103 92 152 172
28 35 295 281 178 185 144 232 238 164 153 164 169 168 171 177 174 176 171 169 173 170 174 187 181 167 170 169 169 166 172 172 182 183 174 178 180 172 157 167 191 169 138 128 131 131 128 146 149
29 239 247 280 225 144 163 236 240 172 165 179 178 173 175 176 178 176 166 166 172 171 172 178 167 167 171 163 154 139 154 179 178 173 177 186 183 174 160 171 175 157 140 146 155 140 154 159 182
230 228 252 253 249 141 207 242 235 188 180 183 178 179 182 182 189 170 158 159 161 162 163 168 168 161 147 126 97 83 99 198 150 179 191 182 171 159 145 154 156 146 142 146 151 145 135 161 172
193 205 249 261 245 184 230 243 238 196 187 186 184 185 186 191 181 153 151 153 159 163 171 176 174 172 153 151 167 181 211 232 239 216 196 180 163 153 146 157 154 149 161 179 168 149 135 135 124
191 218 255 288 294 173 233 272 258 199 201 195 192 190 186 184 164 160 155 163 173 183 187 185 190 189 187 189 192 195 196 225 230 250 199 182 162 161 164 167 175 173 166 169 164 147 142 150 136
215 205 221 228 16 54 73 313 275 233 189 192 196 193 186 187 181 180 178 184 184 192 198 196 197 203 200 181 155 111 65 44 24 285 257 236 187 181 177 174 173 183 177 182 186 175 168 183 205
241 220 197 187 144 265 155 257 277 240 224 206 203 195 193 192 183 183 187 191 196 202 194 185 182 200 209 183 171 171 180 214 232 228 233 249 211 200 190 177 177 188 187 189 199 185 183 174 201
216 169 147 151 151 130 21 198 278 250 234 233 212 198 198 197 189 187 191 197 201 197 186 182 173 197 209 195 186 185 203 223 236 220 221 240 251 225 204 191 182 193 196 197 199 189 190 193 201
147 84 67 59 82 243 230 189 269 232 226 221 209 199 198 194 187 187 189 186 194 183 169 170 175 204 203 194 200 197 202 203 203 219 219 231 245 249 235 205 198 199 201 204 206 200 199 205 207
111 105 41 2 9 251 238 202 252 250 230 208 204 199 194 186 183 181 182 188 191 192 177 167 175 207 211 200 205 208 206 198 205 215 215 218 224 234 238 225 215 212 210 206 199 197 210 206 206
173 151 162 200 220 263 277 237 258 260 245 204 187 183 179 180 188 190 189 189 191 199 186 177 188 207 208 208 217 216 209 205 213 213 214 213 220 226 225 215 215 221 214 209 200 202 217 211 215
147 169 162 137 143 239 271 277 300 280 257 170 168 169 181 189 191 190 187 186 192 197 198 196 195 204 214 217 220 220 215 207 214 217 214 217 223 226 218 211 212 217 214 210 204 216 228 217 219
140 142 105 125 156 241 277 266 249 243 228 206 195 193 200 193 191 186 186 187 190 191 194 199 198 206 220 212 218 217 213 210 211 207 214 220 221 217 220 221 219 222 224 212 203 218 232 221 231
103 104 113 122 151 167 243 265 233 217 207 199 206 201 193 191 192 190 192 190 181 174 182 198 204 208 215 218 218 210 216 218 207 209 219 221 218 213 217 223 224 229 232 220 210 222 220 219 234
152 155 145 152 206 181 193 265 282 218 204 191 196 198 192 188 189 189 183 167 168 182 193 206 210 217 221 219 209 202 206 203 206 225 232 220 221 221 213 212 229 239 237 219 213 221 218 216 227
Height
1497 1497 1498 1500 1503 1513 1514 1506 1501 1498 1497 1496 1496 1497 1498 1500 1503 1507 1502 1501 1503 1505 1507 1508 1510 1512 1513 1515 1516 1517 1518 1518 1519 1520 1522 1523 1524 1525 1526 1527 1529 1530 1531 1532 1534 1535 1536 1538 1539
1497 1498 1500 1500 1510 1522 1515 1503 1500 1497 1496 1496 1496 1497 1498 1499 1500 1500 1500 1502 1504 1506 1507 1509 1511 1513 1514 1516 1517 1517 1518 1519 1520 1521 1522 1523 1524 1525 1526 1528 1529 1530 1531 1533 1534 1535 1537 1538 1539
1497 1498 1500 1503 1513 1518 1510 1499 1497 1495 1495 1495 1496 1497 1498 1499 1500 1500 1501 1502 1504 1506 1508 1510 1512 1513 1515 1516 1518 1518 1519 1520 1520 1521 1522 1523 1524 1525 1527 1528 1529 1530 1531 1533 1534 1535 1536 1538 1539
1497 1499 1501 1508 1511 1506 1501 1496 1494 1494 1495 1495 1496 1498 1499 1500 1500 1501 1501 1503 1505 1507 1509 1511 1512 1514 1515 1517 1518 1519 1519 1520 1521 1522 1523 1524 1525 1526 1527 1528 1529 1530 1531 1532 1534 1535 1536 1538 1539
1497 1498 1506 1513 1509 1501 1496 1493 1493 1494 1495 1495 1496 1498 1498 1500 1500 1501 1502 1504 1506 1508 1510 1511 1513 1514 1516 1517 1518 1519 1519 1520 1521 1522 1523 1524 1525 1525 1527 1528 1529 1530 1531 1532 1533 1534 1536 1537 1539
1497 1499 1513 1516 1507 1498 1493 1492 1492 1493 1494 1495 1497 1498 1499 1500 1501 1502 1504 1506 1507 1509 1510 1512 1513 1515 1516 1517 1518 1519 1519 1520 1521 1522 1523 1524 1525 1525 1526 1527 1528 1529 1530 1531 1533 1534 1535 1536 1538
1498 1504 1511 1510 1506 1500 1493 1491 1492 1493 1494 1495 1496 1498 1499 1500 1501 1503 1504 1506 1508 1509 1510 1512 1513 1515 1516 1517 1518 1519 1520 1520 1521 1522 1522 1523 1524 1525 1526 1527 1528 1529 1530 1531 1532 1533 1534 1536 1537
1496 1502 1507 1508 1505 1499 1492 1491 1491 1492 1494 1495 1496 1497 1498 1499 1501 1503 1504 1506 1508 1509 1511 1512 1513 1514 1515 1516 1518 1519 1519 1520 1521 1521 1522 1523 1524 1525 1525 1526 1527 1528 1529 1530 1531 1532 1533 1535 1536
1496 1506 1510 1504 1501 1495 1491 1492 1492 1493 1493 1494 1495 1496 1497 1499 1500 1502 1504 1506 1508 1509 1511 1512 1513 1514 1515 1516 1517 1518 1519 1519 1520 1521 1521 1522 1523 1523 1524 1525 1526 1527 1529 1529 1530 1531 1532 1533 1535
1496 1506 1501 1494 1492 1491 1491 1491 1492 1493 1493 1494 1495 1495 1497 1498 1500 1502 1504 1505 1507 1509 1510 1512 1513 1514 1515 1515 1516 1517 1518 1518 1519 1520 1521 1521 1522 1523 1523 1524 1525 1526 1527 1528 1529 1530 1531 1532 1533
1494 1497 1492 1490 1489 1489 1490 1490 1491 1492 1493 1492 1492 1494 1495 1497 1500 1501 1503 1505 1507 1509 1510 1512 1513 1514 1515 1515 1516 1516 1517 1518 1519 1519 1520 1521 1521 1522 1522 1523 1524 1525 1526 1526 1527 1528 1529 1530 1531
1493 1490 1489 1488 1487 1488 1488 1489 1490 1490 1489 1490 1491 1492 1494 1496 1499 1501 1502 1505 1507 1509 1510 1511 1512 1514 1514 1515 1515 1516 1516 1517 1518 1518 1519 1519 1520 1520 1521 1522 1522 1523 1524 1525 1526 1527 1528 1529 1530
1491 1489 1487 1485 1485 1486 1486 1487 1488 1488 1489 1490 1491 1493 1494 1496 1498 1500 1502 1505 1507 1508 1510 1511 1512 1513 1513 1514 1515 1516 1516 1516 1517 1517 1518 1518 1519 1519 1520 1520 1521 1522 1523 1524 1524 1525 1526 1527 1528
1487 1487 1486 1484 1484 1484 1485 1487 1488 1488 1489 1490 1491 1493 1495 1496 1498 1500 1502 1504 1506 1507 1509 1510 1512 1512 1513 1514 1514 1515 1515 1516 1516 1516 1517 1517 1518 1518 1518 1519 1519 1520 1521 1522 1523 1524 1525 1526 1527
1487 1488 1486 1484 1483 1484 1486 1489 1487 1486 1488 1489 1491 1493 1495 1496 1497 1499 1501 1503 1505 1507 1508 1509 1510 1511 1512 1513 1513 1514 1514 1514 1515 1515 1515 1516 1516 1517 1517 1517 1518 1518 1519 1520 1521 1522 1523 1524 1525
1488 1491 1494 1486 1483 1484 1489 1494 1485 1486 1487 1489 1491 1493 1494 1496 1497 1499 1500 1503 1505 1506 1507 1508 1509 1510 1511 1511 1512 1513 1513 1513 1514 1514 1514 1514 1514 1515 1515 1516 1516 1517 1517 1518 1519 1520 1521 1522 1523
1494 1499 1496 1489 1483 1484 1488 1491 1485 1485 1486 1488 1490 1492 1493 1495 1497 1498 1500 1502 1504 1505 1506 1508 1508 1509 1509 1510 1511 1511 1511 1512 1512 1512 1512 1512 1513 1513 1514 1514 1514 1515 1516 1516 1517 1518 1519 1519 1520
1498 1497 1495 1491 1484 1485 1489 1488 1484 1485 1486 1487 1489 1491 1492 1494 1495 1497 1499 1501 1503 1504 1505 1506 1507 1507 1508 1509 1509 1509 1509 1510 1510 1510 1511 1511 1511 1511 1512 1512 1513 1513 1514 1514 1515 1516 1517 1517 1518
1487 1491 1493 1487 1482 1486 1488 1487 1484 1484 1485 1486 1488 1490 1491 1492 1494 1496 1498 1499 1501 1502 1503 1504 1505 1505 1506 1506 1507 1507 1507 1507 1508 1508 1509 1509 1509 1509 1510 1510 1511 1512 1512 1513 1513 1514 1515 1516 1516
1486 1491 1491 1486 1482 1485 1488 1487 1483 1483 1483 1484 1485 1486 1488 1490 1493 1494 1496 1497 1499 1500 1501 1502 1502 1503 1504 1504 1505 1505 1505 1505 1506 1506 1506 1507 1507 1508 1508 1508 1509 1510 1510 1511 1512 1512 1513 1514 1515
1485 1488 1488 1488 1484 1484 1488 1491 1485 1482 1482 1483 1483 1484 1486 1488 1490 1492 1494 1495 1496 1497 1498 1499 1500 1501 1502 1502 1503 1503 1503 1503 1504 1504 1504 1505 1505 1506 1506 1507 1507 1508 1508 1509 1509 1510 1511 1511 1513
1485 1477 1479 1483 1491 1498 1493 1504 1488 1483 1482 1481 1481 1483 1484 1486 1488 1490 1491 1493 1493 1494 1495 1496 1497 1498 1500 1500 1501 1501 1500 1500 1501 1502 1502 1503 1503 1504 1504 1505 1505 1506 1507 1507 1508 1508 1509 1510 1510
1475 1472 1477 1482 1491 1498 1496 1503 1494 1485 1484 1481 1479 1480 1481 1483 1485 1487 1488 1490 1491 1492 1493 1494 1495 1496 1497 1498 1498 1499 1499 1499 1499 1500 1500 1501 1501 1501 1502 1502 1503 1504 1504 1505 1506 1506 1507 1508 1508
1469 1476 1482 1490 1497 1507 1498 1503 1497 1487 1480 1477 1476 1477 1478 1481 1483 1485 1486 1488 1490 1491 1491 1492 1493 1494 1494 1495 1496 1496 1496 1496 1496 1497 1497 1498 1498 1499 1500 1500 1501 1502 1502 1503 1504 1504 1505 1506 1506
1472 1486 1502 1505 1511 1508 1495 1498 1492 1476 1472 1472 1472 1474 1476 1478 1480 1482 1484 1486 1487 1488 1489 1490 1491 1491 1492 1492 1493 1494 1494 1494 1494 1494 1495 1495 1495 1496 1497 1498 1498 1499 1500 1501 1502 1502 1502 1503 1503
1472 1480 1500 1509 1512 1506 1496 1497 1483 1470 1469 1469 1470 1472 1474 1476 1479 1480 1482 1484 1485 1486 1487 1488 1488 1489 1489 1490 1490 1491 1492 1492 1492 1492 1493 1493 1493 1494 1495 1496 1496 1497 1498 1498 1499 1499 1500 1500 1500
1471 1478 1479 1495 1501 1506 1501 1489 1477 1469 1468 1468 1469 1471 1473 1475 1477 1478 1480 1482 1483 1485 1485 1486 1486 1486 1487 1488 1488 1489 1490 1490 1490 1490 1491 1491 1492 1492 1493 1494 1494 1495 1495 1496 1496 1497 1497 1497 1498
1463 1471 1486 1496 1506 1508 1498 1492 1485 1472 1469 1469 1469 1470 1471 1473 1475 1477 1478 1480 1482 1483 1484 1484 1485 1485 1486 1486 1487 1487 1487 1488 1488 1489 1489 1490 1490 1491 1491 1491 1492 1493 1493 1494 1494 1495 1495 1495 1496
1468 1473 1482 1492 1495 1504 1506 1494 1468 1465 1464 1466 1466 1467 1469 1471 1473 1475 1477 1479 1480 1481 1482 1483 1483 1484 1484 1485 1485 1485 1486 1486 1487 1487 1487 1488 1488 1489 1489 1490 1490 1490 1491 1492 1492 1492 1493 1493 1493
1460 1467 1477 1488 1493 1496 1499 1489 1460 1460 1460 1462 1464 1466 1468 1470 1472 1474 1476 1477 1478 1479 1480 1481 1482 1482 1483 1483 1484 1484 1485 1485 1485 1486 1486 1486 1487 1487 1487 1488 1488 1489 1489 1489 1490 1490 1490 1490 1490